BOE320 KHOU-KMIA

Flight info

Callsign BOE320
Flight time 1h 50m
Altitude 39000
Route ELOCO6 LLA LEV Y290 GAWKS FROGZ4
Aircraft B736/M-SDE2E3FGHIRWXY/LB1

Departure

Time 2026-05-05 15:29
Airport William P. Hobby Airport (KHOU)

Arrival

Time 2026-05-05 17:20
Airport Miami International Airport (KMIA)
Time Latitude Longitude Altitude Speed Heading
2026-05-05 14:48 29.65233 -95.27575 51 ft 0 kts 21°
2026-05-05 15:16 29.65232 -95.27576 51 ft 2 kts 21°
2026-05-05 15:16 29.65216 -95.27583 47 ft 2 kts 24°
2026-05-05 15:17 29.65201 -95.27591 51 ft 2 kts 26°
2026-05-05 15:17 29.65186 -95.27599 48 ft 2 kts 11°
2026-05-05 15:17 29.65171 -95.27596 51 ft 2 kts 314°
2026-05-05 15:17 29.65160 -95.27581 49 ft 2 kts 305°
2026-05-05 15:18 29.65152 -95.27565 51 ft 2 kts 290°
2026-05-05 15:18 29.65147 -95.27546 49 ft 2 kts 276°
2026-05-05 15:18 29.65147 -95.27534 51 ft 1 kts 269°
2026-05-05 15:18 29.65147 -95.27533 51 ft 0 kts 268°
2026-05-05 15:20 29.65147 -95.27537 51 ft 1 kts 269°
2026-05-05 15:20 29.65146 -95.27560 51 ft 4 kts 268°
2026-05-05 15:20 29.65145 -95.27606 51 ft 7 kts 269°
2026-05-05 15:21 29.65144 -95.27672 51 ft 10 kts 269°
2026-05-05 15:21 29.65142 -95.27757 51 ft 12 kts 269°
2026-05-05 15:21 29.65143 -95.27858 51 ft 14 kts 278°
2026-05-05 15:21 29.65207 -95.27947 51 ft 16 kts 314°
2026-05-05 15:22 29.65256 -95.28004 51 ft 9 kts 314°
2026-05-05 15:22 29.65305 -95.28062 51 ft 11 kts 313°
2026-05-05 15:22 29.65345 -95.28144 51 ft 13 kts 253°
2026-05-05 15:22 29.65314 -95.28247 51 ft 14 kts 250°
2026-05-05 15:23 29.65281 -95.28343 49 ft 14 kts 235°
2026-05-05 15:23 29.65223 -95.28432 48 ft 15 kts 262°
2026-05-05 15:23 29.65223 -95.28508 51 ft 0 kts 270°
2026-05-05 15:24 29.65223 -95.28510 51 ft 1 kts 270°
2026-05-05 15:24 29.65220 -95.28529 51 ft 4 kts 254°
2026-05-05 15:25 29.65193 -95.28560 51 ft 10 kts 202°
2026-05-05 15:25 29.65102 -95.28555 51 ft 16 kts 150°
2026-05-05 15:25 29.65067 -95.28521 51 ft 0 kts 134°
2026-05-05 15:28 29.65047 -95.28497 51 ft 22 kts 134°
2026-05-05 15:29 29.64758 -95.28154 51 ft 95 kts 134°
2026-05-05 15:29 29.64107 -95.27503 60 ft 149 kts 150°
2026-05-05 15:29 29.63266 -95.26678 447 ft 173 kts 128°
2026-05-05 15:29 29.62983 -95.25758 740 ft 195 kts 106°
2026-05-05 15:30 29.62648 -95.23760 1940 ft 183 kts 107°
2026-05-05 15:30 29.62506 -95.22792 2572 ft 188 kts 107°
2026-05-05 15:30 29.62276 -95.21247 3373 ft 209 kts 107°
2026-05-05 15:30 29.61959 -95.19480 3818 ft 244 kts 108°
2026-05-05 15:31 29.61572 -95.17434 4330 ft 272 kts 107°
2026-05-05 15:31 29.61170 -95.15273 5321 ft 281 kts 106°
2026-05-05 15:31 29.60757 -95.13041 6252 ft 291 kts 105°
2026-05-05 15:31 29.60331 -95.10736 7168 ft 297 kts 104°
2026-05-05 15:32 29.59897 -95.08399 8137 ft 302 kts 103°
2026-05-05 15:32 29.59455 -95.06029 9129 ft 306 kts 103°
2026-05-05 15:32 29.59007 -95.03606 10088 ft 313 kts 100°
2026-05-05 15:32 29.58916 -95.01047 10725 ft 331 kts 80°
2026-05-05 15:33 29.59539 -94.98490 11509 ft 336 kts 69°
2026-05-05 15:33 29.60302 -94.95905 12321 ft 344 kts 68°
2026-05-05 15:33 29.61065 -94.93273 13137 ft 351 kts 68°
2026-05-05 15:33 29.61821 -94.90587 13965 ft 355 kts 68°
2026-05-05 15:34 29.62578 -94.87852 14657 ft 363 kts 69°
2026-05-05 15:34 29.63346 -94.85055 15345 ft 370 kts 69°
2026-05-05 15:34 29.64197 -94.82241 16055 ft 375 kts 65°
2026-05-05 15:34 29.65178 -94.79472 16747 ft 381 kts 63°
2026-05-05 15:35 29.66226 -94.76644 17444 ft 388 kts 63°
2026-05-05 15:35 29.67292 -94.73767 18145 ft 395 kts 63°
2026-05-05 15:35 29.68368 -94.70827 18772 ft 401 kts 63°
2026-05-05 15:35 29.69449 -94.67839 19426 ft 406 kts 63°
2026-05-05 15:36 29.70535 -94.64811 20087 ft 412 kts 63°
2026-05-05 15:36 29.71637 -94.61735 20724 ft 418 kts 63°
2026-05-05 15:36 29.72750 -94.58621 21383 ft 423 kts 63°
2026-05-05 15:36 29.73666 -94.55358 22024 ft 434 kts 74°
2026-05-05 15:37 29.74063 -94.51873 22657 ft 444 kts 85°
2026-05-05 15:37 29.73932 -94.48331 23250 ft 452 kts 96°
2026-05-05 15:37 29.73455 -94.44733 23799 ft 458 kts 98°
2026-05-05 15:37 29.72941 -94.41090 24349 ft 462 kts 98°
2026-05-05 15:38 29.72460 -94.37412 24936 ft 465 kts 97°
2026-05-05 15:38 29.72007 -94.33712 25512 ft 469 kts 97°
2026-05-05 15:38 29.71581 -94.29977 26073 ft 473 kts 96°
2026-05-05 15:38 29.71169 -94.26218 26611 ft 477 kts 96°
2026-05-05 15:39 29.70756 -94.22416 27140 ft 481 kts 96°
2026-05-05 15:39 29.70335 -94.18585 27664 ft 485 kts 96°
2026-05-05 15:39 29.69905 -94.14729 28179 ft 488 kts 96°
2026-05-05 15:39 29.69469 -94.10848 28690 ft 492 kts 96°
2026-05-05 15:40 29.69027 -94.06928 29192 ft 496 kts 96°
2026-05-05 15:40 29.68612 -94.02975 29673 ft 499 kts 92°
2026-05-05 15:40 29.68467 -93.98969 30128 ft 502 kts 88°
2026-05-05 15:40 29.68443 -93.94949 30540 ft 504 kts 87°
2026-05-05 15:41 29.68454 -93.90907 30965 ft 507 kts 87°
2026-05-05 15:41 29.68466 -93.86831 31390 ft 509 kts 87°
2026-05-05 15:41 29.68465 -93.82746 31797 ft 512 kts 87°
2026-05-05 15:41 29.68446 -93.78631 32177 ft 516 kts 88°
2026-05-05 15:42 29.68415 -93.74552 32551 ft 518 kts 88°
2026-05-05 15:42 29.68373 -93.70347 32924 ft 521 kts 88°
2026-05-05 15:42 29.68327 -93.66233 33385 ft 520 kts 88°
2026-05-05 15:42 29.68277 -93.62077 33967 ft 518 kts 88°
2026-05-05 15:43 29.68226 -93.57945 34411 ft 515 kts 88°
2026-05-05 15:43 29.68176 -93.53827 34799 ft 515 kts 88°
2026-05-05 15:43 29.68126 -93.49699 35147 ft 515 kts 88°
2026-05-05 15:43 29.68076 -93.45574 35503 ft 515 kts 88°
2026-05-05 15:44 29.68024 -93.41450 35886 ft 514 kts 88°
2026-05-05 15:44 29.67972 -93.37342 36269 ft 513 kts 88°
2026-05-05 15:44 29.67918 -93.33246 36608 ft 513 kts 88°
2026-05-05 15:44 29.67863 -93.29148 36933 ft 513 kts 88°
2026-05-05 15:45 29.67807 -93.25053 37279 ft 512 kts 89°
2026-05-05 15:45 29.67750 -93.20963 37610 ft 511 kts 89°
2026-05-05 15:45 29.67691 -93.16877 37938 ft 511 kts 89°
2026-05-05 15:45 29.67632 -93.12844 38260 ft 510 kts 89°
2026-05-05 15:46 29.67570 -93.08769 38610 ft 508 kts 89°
2026-05-05 15:46 29.67508 -93.04710 38895 ft 507 kts 89°
2026-05-05 15:46 29.67445 -93.00637 38968 ft 512 kts 89°
2026-05-05 15:47 29.67314 -92.92426 38963 ft 513 kts 89°
2026-05-05 15:47 29.67177 -92.84269 38951 ft 506 kts 89°
2026-05-05 15:48 29.67037 -92.76194 38968 ft 505 kts 89°
2026-05-05 15:48 29.66894 -92.68115 38972 ft 506 kts 89°
2026-05-05 15:49 29.66744 -92.60021 38969 ft 506 kts 89°
2026-05-05 15:49 29.66591 -92.51974 38961 ft 507 kts 89°
2026-05-05 15:50 29.66431 -92.43851 38967 ft 508 kts 89°
2026-05-05 15:50 29.66056 -92.35735 38950 ft 510 kts 99°
2026-05-05 15:51 29.64446 -92.27802 38965 ft 510 kts 104°
2026-05-05 15:51 29.62723 -92.19895 38975 ft 510 kts 104°
2026-05-05 15:52 29.61039 -92.11966 38977 ft 511 kts 103°
2026-05-05 15:52 29.59387 -92.04043 38973 ft 511 kts 103°
2026-05-05 15:53 29.57733 -91.96092 38971 ft 511 kts 103°
2026-05-05 15:53 29.56076 -91.88156 38975 ft 510 kts 103°
2026-05-05 15:54 29.54413 -91.80235 38973 ft 510 kts 103°
2026-05-05 15:54 29.52747 -91.72323 38979 ft 510 kts 103°
2026-05-05 15:55 29.51078 -91.64422 38985 ft 509 kts 103°
2026-05-05 15:55 29.49416 -91.56578 38990 ft 508 kts 103°
2026-05-05 15:56 29.47742 -91.48706 38991 ft 508 kts 103°
2026-05-05 15:56 29.46059 -91.40810 38987 ft 508 kts 103°
2026-05-05 15:57 29.44375 -91.32936 38990 ft 508 kts 103°
2026-05-05 15:57 29.42695 -91.25105 38999 ft 508 kts 103°
2026-05-05 15:58 29.41000 -91.17228 38996 ft 509 kts 103°
2026-05-05 15:58 29.39295 -91.09333 38993 ft 510 kts 103°
2026-05-05 15:59 29.37582 -91.01418 38995 ft 511 kts 103°
2026-05-05 15:59 29.35863 -90.93504 39000 ft 512 kts 103°
2026-05-05 16:00 29.34135 -90.85570 39003 ft 513 kts 103°
2026-05-05 16:00 29.32412 -90.77684 39010 ft 514 kts 103°
2026-05-05 16:01 29.30669 -90.69732 39009 ft 515 kts 103°
2026-05-05 16:01 29.28919 -90.61772 39018 ft 516 kts 103°
2026-05-05 16:02 29.27161 -90.53799 39008 ft 516 kts 103°
2026-05-05 16:02 29.25398 -90.45831 38999 ft 516 kts 105°
2026-05-05 16:03 29.23621 -90.37820 39031 ft 524 kts 102°
2026-05-05 16:03 29.21807 -90.29650 39045 ft 535 kts 103°
2026-05-05 16:04 29.19947 -90.21319 39039 ft 544 kts 102°
2026-05-05 16:04 29.18054 -90.12875 39035 ft 551 kts 103°
2026-05-05 16:05 29.15510 -90.04597 39033 ft 551 kts 115°
2026-05-05 16:05 29.12426 -89.96558 39030 ft 552 kts 113°
2026-05-05 16:06 29.09333 -89.88514 39025 ft 552 kts 115°
2026-05-05 16:06 29.06290 -89.80474 39035 ft 551 kts 114°
2026-05-05 16:07 29.03267 -89.72431 39027 ft 551 kts 113°
2026-05-05 16:07 29.00262 -89.64441 39034 ft 550 kts 113°
2026-05-05 16:08 28.97220 -89.56379 39030 ft 549 kts 114°
2026-05-05 16:08 28.94214 -89.48435 39041 ft 548 kts 113°
2026-05-05 16:09 28.91185 -89.40449 39037 ft 547 kts 113°
2026-05-05 16:09 28.88153 -89.32474 39046 ft 547 kts 113°
2026-05-05 16:10 28.85123 -89.24518 39036 ft 547 kts 113°
2026-05-05 16:10 28.82087 -89.16565 39049 ft 546 kts 113°
2026-05-05 16:11 28.79055 -89.08637 39040 ft 546 kts 113°
2026-05-05 16:12 28.72992 -88.92837 39044 ft 545 kts 113°
2026-05-05 16:13 28.65368 -88.73061 39047 ft 544 kts 113°
2026-05-05 16:13 28.62336 -88.65223 39053 ft 544 kts 114°
2026-05-05 16:14 28.56222 -88.49470 39057 ft 543 kts 114°
2026-05-05 16:15 28.50095 -88.33748 39056 ft 543 kts 114°
2026-05-05 16:16 28.43977 -88.18112 39058 ft 542 kts 114°
2026-05-05 16:17 28.39883 -88.07681 39062 ft 542 kts 114°
2026-05-05 16:18 28.35817 -87.95738 39064 ft 540 kts 106°
2026-05-05 16:19 28.32443 -87.83530 39064 ft 540 kts 106°
2026-05-05 16:19 28.28971 -87.71378 39065 ft 539 kts 107°
2026-05-05 16:20 28.24266 -87.55228 39066 ft 539 kts 107°
2026-05-05 16:22 28.18419 -87.35220 39060 ft 538 kts 107°
2026-05-05 16:23 28.13692 -87.19132 39062 ft 537 kts 107°
2026-05-05 16:23 28.10142 -87.07097 39065 ft 537 kts 107°
2026-05-05 16:24 28.07781 -86.99119 39058 ft 536 kts 107°
2026-05-05 16:25 28.04216 -86.87104 39063 ft 536 kts 107°
2026-05-05 16:25 28.00646 -86.75110 39065 ft 536 kts 107°
2026-05-05 16:26 27.96027 -86.59148 39065 ft 535 kts 107°
2026-05-05 16:27 27.93710 -86.51130 39058 ft 535 kts 107°
2026-05-05 16:27 27.91384 -86.43126 39062 ft 535 kts 107°
2026-05-05 16:28 27.89051 -86.35130 39056 ft 535 kts 107°
2026-05-05 16:28 27.86733 -86.27201 39067 ft 535 kts 107°
2026-05-05 16:29 27.84378 -86.19165 39060 ft 535 kts 107°
2026-05-05 16:29 27.83224 -86.15232 38906 ft 535 kts 106°
2026-05-05 16:29 27.82055 -86.11247 38983 ft 534 kts 105°
2026-05-05 16:30 27.79710 -86.03281 39065 ft 535 kts 105°
2026-05-05 16:30 27.77343 -85.95262 39066 ft 538 kts 106°
2026-05-05 16:31 27.74971 -85.87241 39080 ft 539 kts 106°
2026-05-05 16:31 27.72586 -85.79201 39063 ft 541 kts 106°
2026-05-05 16:32 27.70191 -85.71145 39064 ft 541 kts 106°
2026-05-05 16:32 27.67965 -85.63672 39064 ft 541 kts 106°
2026-05-05 16:33 27.65578 -85.55677 39066 ft 541 kts 106°
2026-05-05 16:33 27.63167 -85.47622 39066 ft 540 kts 106°
2026-05-05 16:34 27.60759 -85.39591 39067 ft 540 kts 106°
2026-05-05 16:34 27.58548 -85.31530 39062 ft 536 kts 98°
2026-05-05 16:35 27.57246 -85.23286 39064 ft 534 kts 96°
2026-05-05 16:35 27.55864 -85.15043 39071 ft 534 kts 97°
2026-05-05 16:36 27.54424 -85.06876 39070 ft 534 kts 97°
2026-05-05 16:36 27.52981 -84.98659 39072 ft 534 kts 97°
2026-05-05 16:37 27.51541 -84.90451 39072 ft 534 kts 97°
2026-05-05 16:37 27.50097 -84.82244 39069 ft 533 kts 97°
2026-05-05 16:38 27.48653 -84.74104 39066 ft 533 kts 97°
2026-05-05 16:38 27.47179 -84.65916 39073 ft 533 kts 97°
2026-05-05 16:39 27.45704 -84.57744 39071 ft 532 kts 97°
2026-05-05 16:39 27.44226 -84.49572 39068 ft 532 kts 97°
2026-05-05 16:40 27.42748 -84.41415 39073 ft 532 kts 97°
2026-05-05 16:40 27.41265 -84.33259 39069 ft 532 kts 97°
2026-05-05 16:41 27.39784 -84.25107 39073 ft 531 kts 97°
2026-05-05 16:41 27.38308 -84.17006 39074 ft 531 kts 97°
2026-05-05 16:42 27.36818 -84.08860 39073 ft 531 kts 97°
2026-05-05 16:42 27.35324 -84.00717 39075 ft 531 kts 97°
2026-05-05 16:43 27.33822 -83.92561 39076 ft 531 kts 97°
2026-05-05 16:43 27.32318 -83.84423 39072 ft 532 kts 97°
2026-05-05 16:44 27.30808 -83.76284 39074 ft 532 kts 97°
2026-05-05 16:44 27.29295 -83.68150 39074 ft 532 kts 97°
2026-05-05 16:45 27.27774 -83.60003 39078 ft 532 kts 97°
2026-05-05 16:45 27.26249 -83.51863 39070 ft 532 kts 97°
2026-05-05 16:46 27.24731 -83.43784 39078 ft 532 kts 97°
2026-05-05 16:46 27.23201 -83.35668 39074 ft 531 kts 97°
2026-05-05 16:47 27.21663 -83.27539 39075 ft 531 kts 97°
2026-05-05 16:47 27.20122 -83.19417 39074 ft 531 kts 97°
2026-05-05 16:48 27.18579 -83.11314 39059 ft 531 kts 97°
2026-05-05 16:48 27.17039 -83.03206 39076 ft 530 kts 97°
2026-05-05 16:49 27.15513 -82.95110 39072 ft 530 kts 97°
2026-05-05 16:49 27.13988 -82.87054 39058 ft 530 kts 97°
2026-05-05 16:50 27.12964 -82.83063 39041 ft 537 kts 111°
2026-05-05 16:50 27.11081 -82.79414 39110 ft 539 kts 122°
2026-05-05 16:50 27.06968 -82.72302 38485 ft 548 kts 120°
2026-05-05 16:51 27.04941 -82.68677 37831 ft 546 kts 120°
2026-05-05 16:51 27.02950 -82.65064 37204 ft 542 kts 120°
2026-05-05 16:51 27.00984 -82.61473 36577 ft 540 kts 119°
2026-05-05 16:51 26.99019 -82.57883 35939 ft 536 kts 120°
2026-05-05 16:52 26.97119 -82.54426 35452 ft 521 kts 120°
2026-05-05 16:52 26.95236 -82.51008 34979 ft 508 kts 120°
2026-05-05 16:52 26.93404 -82.47690 34526 ft 495 kts 120°
2026-05-05 16:52 26.91565 -82.44473 34073 ft 485 kts 126°
2026-05-05 16:53 26.89229 -82.41809 33552 ft 475 kts 143°
2026-05-05 16:53 26.86677 -82.39523 33118 ft 467 kts 142°
2026-05-05 16:53 26.84163 -82.37196 32650 ft 469 kts 141°
2026-05-05 16:53 26.81670 -82.34838 32193 ft 470 kts 141°
2026-05-05 16:54 26.79186 -82.32460 31709 ft 465 kts 141°
2026-05-05 16:54 26.76746 -82.30113 31262 ft 458 kts 141°
2026-05-05 16:54 26.74347 -82.27806 30825 ft 452 kts 141°
2026-05-05 16:54 26.72003 -82.25555 30387 ft 446 kts 141°
2026-05-05 16:55 26.69661 -82.23311 29929 ft 441 kts 141°
2026-05-05 16:55 26.67344 -82.21095 29443 ft 436 kts 141°
2026-05-05 16:55 26.65037 -82.18891 29010 ft 437 kts 141°
2026-05-05 16:55 26.62720 -82.16680 28573 ft 439 kts 141°
2026-05-05 16:56 26.60401 -82.14466 28142 ft 438 kts 142°
2026-05-05 16:56 26.58085 -82.12255 27713 ft 436 kts 142°
2026-05-05 16:56 26.55784 -82.10061 27292 ft 433 kts 142°
2026-05-05 16:56 26.53515 -82.07898 26872 ft 429 kts 142°
2026-05-05 16:57 26.51258 -82.05709 26448 ft 427 kts 141°
2026-05-05 16:57 26.49059 -82.03501 26043 ft 424 kts 140°
2026-05-05 16:57 26.46884 -82.01291 25638 ft 421 kts 140°
2026-05-05 16:57 26.44722 -81.99093 25226 ft 418 kts 140°
2026-05-05 16:58 26.42575 -81.96916 24810 ft 417 kts 140°
2026-05-05 16:58 26.40431 -81.94751 24383 ft 415 kts 140°
2026-05-05 16:58 26.38291 -81.92596 23973 ft 413 kts 141°
2026-05-05 16:58 26.36165 -81.90459 23559 ft 411 kts 141°
2026-05-05 16:59 26.34051 -81.88335 23106 ft 408 kts 141°
2026-05-05 16:59 26.31962 -81.86236 22674 ft 398 kts 141°
2026-05-05 16:59 26.29935 -81.84201 22273 ft 386 kts 141°
2026-05-05 16:59 26.27963 -81.82222 21903 ft 378 kts 141°
2026-05-05 17:00 26.26019 -81.80274 21547 ft 373 kts 141°
2026-05-05 17:00 26.24131 -81.78335 21206 ft 378 kts 135°
2026-05-05 17:00 26.22672 -81.75854 20816 ft 382 kts 113°
2026-05-05 17:00 26.21594 -81.73140 20467 ft 385 kts 114°
2026-05-05 17:01 26.20469 -81.70471 20096 ft 387 kts 115°
2026-05-05 17:01 26.19301 -81.67770 19711 ft 385 kts 115°
2026-05-05 17:01 26.18145 -81.65122 19613 ft 374 kts 115°
2026-05-05 17:01 26.17024 -81.62555 19346 ft 364 kts 115°
2026-05-05 17:02 26.15919 -81.60023 18878 ft 360 kts 115°
2026-05-05 17:02 26.14826 -81.57517 18340 ft 359 kts 115°
2026-05-05 17:02 26.13755 -81.55064 18066 ft 350 kts 115°
2026-05-05 17:02 26.13050 -81.53448 17807 ft 349 kts 115°
2026-05-05 17:03 26.11990 -81.51018 17452 ft 348 kts 115°
2026-05-05 17:03 26.10937 -81.48605 17102 ft 346 kts 116°
2026-05-05 17:03 26.09885 -81.46196 16753 ft 345 kts 116°
2026-05-05 17:03 26.08839 -81.43802 16408 ft 343 kts 116°
2026-05-05 17:04 26.07793 -81.41410 16038 ft 343 kts 116°
2026-05-05 17:04 26.06751 -81.39028 15694 ft 341 kts 116°
2026-05-05 17:04 26.05721 -81.36666 15472 ft 340 kts 116°
2026-05-05 17:04 26.04689 -81.34295 15223 ft 338 kts 116°
2026-05-05 17:05 26.03682 -81.31983 14926 ft 335 kts 117°
2026-05-05 17:05 26.02671 -81.29663 14592 ft 333 kts 117°
2026-05-05 17:05 26.01660 -81.27345 14246 ft 328 kts 117°
2026-05-05 17:05 26.00678 -81.25092 13888 ft 320 kts 117°
2026-05-05 17:06 25.99718 -81.22894 13518 ft 312 kts 117°
2026-05-05 17:06 25.98782 -81.20749 13150 ft 304 kts 117°
2026-05-05 17:06 25.97870 -81.18660 12804 ft 297 kts 117°
2026-05-05 17:06 25.96980 -81.16626 12485 ft 290 kts 117°
2026-05-05 17:07 25.96104 -81.14625 12182 ft 286 kts 117°
2026-05-05 17:07 25.95237 -81.12645 11867 ft 284 kts 117°
2026-05-05 17:07 25.94376 -81.10680 11572 ft 282 kts 117°
2026-05-05 17:07 25.93522 -81.08730 11274 ft 280 kts 117°
2026-05-05 17:08 25.92668 -81.06782 10959 ft 279 kts 117°
2026-05-05 17:08 25.91821 -81.04851 10662 ft 278 kts 117°
2026-05-05 17:08 25.90988 -81.02921 10341 ft 277 kts 115°
2026-05-05 17:08 25.90231 -81.00961 10098 ft 273 kts 114°
2026-05-05 17:09 25.89520 -80.99072 9891 ft 268 kts 114°
2026-05-05 17:09 25.88800 -80.97160 9566 ft 267 kts 114°
2026-05-05 17:09 25.88080 -80.95267 9264 ft 266 kts 114°
2026-05-05 17:09 25.87359 -80.93383 8977 ft 265 kts 114°
2026-05-05 17:10 25.86641 -80.91508 8708 ft 264 kts 114°
2026-05-05 17:10 25.85921 -80.89632 8497 ft 265 kts 114°
2026-05-05 17:10 25.85195 -80.87744 8261 ft 266 kts 114°
2026-05-05 17:10 25.84472 -80.85863 8029 ft 264 kts 114°
2026-05-05 17:11 25.83755 -80.83999 7779 ft 262 kts 114°
2026-05-05 17:11 25.83044 -80.82151 7537 ft 260 kts 114°
2026-05-05 17:11 25.82333 -80.80304 7291 ft 259 kts 114°
2026-05-05 17:11 25.81625 -80.78467 7064 ft 258 kts 114°
2026-05-05 17:12 25.80920 -80.76635 6812 ft 257 kts 114°
2026-05-05 17:12 25.80221 -80.74821 6585 ft 256 kts 114°
2026-05-05 17:12 25.79521 -80.73006 6335 ft 254 kts 114°
2026-05-05 17:12 25.78826 -80.71208 6094 ft 253 kts 114°
2026-05-05 17:13 25.78341 -80.69377 5826 ft 252 kts 91°
2026-05-05 17:13 25.78457 -80.67522 5655 ft 249 kts 85°
2026-05-05 17:13 25.78550 -80.65588 5441 ft 255 kts 88°
2026-05-05 17:13 25.78620 -80.63576 5151 ft 265 kts 88°
2026-05-05 17:14 25.78695 -80.61520 4850 ft 268 kts 86°
2026-05-05 17:14 25.78791 -80.59463 4587 ft 265 kts 86°
2026-05-05 17:14 25.78892 -80.57428 4350 ft 263 kts 86°
2026-05-05 17:14 25.78995 -80.55387 4147 ft 266 kts 86°
2026-05-05 17:15 25.79095 -80.53324 3783 ft 268 kts 86°
2026-05-05 17:15 25.79206 -80.51314 3585 ft 254 kts 86°
2026-05-05 17:15 25.79296 -80.49388 3286 ft 243 kts 86°
2026-05-05 17:15 25.79369 -80.47566 2960 ft 227 kts 86°
2026-05-05 17:16 25.79433 -80.45914 2689 ft 203 kts 86°
2026-05-05 17:16 25.79491 -80.44432 2433 ft 183 kts 86°
2026-05-05 17:16 25.79546 -80.43083 2212 ft 170 kts 86°
2026-05-05 17:16 25.79596 -80.41827 2003 ft 159 kts 85°
2026-05-05 17:17 25.79645 -80.40611 1811 ft 157 kts 85°
2026-05-05 17:17 25.79683 -80.39406 1620 ft 157 kts 85°
2026-05-05 17:17 25.79742 -80.38193 1398 ft 156 kts 86°
2026-05-05 17:17 25.79793 -80.36998 1190 ft 154 kts 86°
2026-05-05 17:18 25.79837 -80.35824 1011 ft 152 kts 85°
2026-05-05 17:18 25.79887 -80.34641 814 ft 153 kts 86°
2026-05-05 17:18 25.79932 -80.33497 669 ft 141 kts 86°
2026-05-05 17:18 25.79975 -80.32454 460 ft 129 kts 87°
2026-05-05 17:19 25.80012 -80.31474 242 ft 123 kts 89°
2026-05-05 17:19 25.80065 -80.30553 127 ft 119 kts 89°
2026-05-05 17:19 25.80098 -80.29622 29 ft 119 kts 89°
2026-05-05 17:19 25.80124 -80.28825 16 ft 83 kts 87°
2026-05-05 17:20 25.80139 -80.28359 14 ft 42 kts 92°
2026-05-05 17:20 25.80075 -80.28197 13 ft 16 kts 143°
2026-05-05 17:20 25.80065 -80.28189 13 ft 0 kts 148°
2026-05-05 17:20 25.80064 -80.28189 13 ft 1 kts 149°
2026-05-05 17:21 25.80052 -80.28182 13 ft 3 kts 153°
2026-05-05 17:21 25.80021 -80.28164 14 ft 7 kts 156°
2026-05-05 17:21 25.79971 -80.28173 14 ft 9 kts 223°
2026-05-05 17:22 25.79952 -80.28360 14 ft 15 kts 267°
2026-05-05 17:22 25.79947 -80.28490 14 ft 18 kts 266°
2026-05-05 17:22 25.79940 -80.28641 14 ft 21 kts 268°
2026-05-05 17:22 25.79923 -80.28806 14 ft 22 kts 231°
2026-05-05 17:23 25.79769 -80.28818 14 ft 23 kts 180°
2026-05-05 17:23 25.79607 -80.28810 15 ft 22 kts 177°
2026-05-05 17:23 25.79449 -80.28802 15 ft 22 kts 177°
2026-05-05 17:23 25.79356 -80.28680 14 ft 22 kts 119°
2026-05-05 17:24 25.79320 -80.28536 14 ft 19 kts 86°
2026-05-05 17:24 25.79330 -80.28392 14 ft 18 kts 85°
2026-05-05 17:24 25.79350 -80.28255 16 ft 18 kts 68°
2026-05-05 17:24 25.79397 -80.28180 14 ft 8 kts 21°
2026-05-05 17:25 25.79435 -80.28158 14 ft 0 kts 30°